DW2356 Weather Reports


Display with metric or nautical units.
time (UTC)temp
F
wind
direction
speed
MPH
gust
MPH
rain 1hr
in
rain 24hr
in
rain mn
in
humidity
%
barometer
mb
20260505003837 62 323 7.0 15.0 0.00 0.00 0.00 79 1012.4
20260505003320 62 306 8.0 18.0 0.00 0.00 0.00 79 1012.4
20260505002825 62 315 7.0 18.0 0.00 0.00 0.00 78 1012.3
20260505002332 62 296 8.0 14.0 0.00 0.00 0.00 78 1012.3
20260505001836 62 314 7.0 15.0 0.00 0.00 0.00 78 1012.3
20260505001329 62 303 6.0 15.0 0.00 0.00 0.00 78 1012.2
20260505000820 63 309 7.0 12.0 0.00 0.00 0.00 79 1012.3
20260505000328 62 315 7.0 13.0 0.00 0.00 0.00 79 1012.3
20260504235819 62 332 6.0 16.0 0.00 0.00 0.00 79 1012.3
20260504235353 63 321 9.0 17.0 0.00 0.00 0.00 78 1012.3
20260504234833 63 319 7.0 15.0 0.00 0.00 0.00 78 1012.3
20260504234318 63 315 6.0 15.0 0.00 0.00 0.00 78 1012.3
20260504233835 63 315 7.0 15.0 0.00 0.00 0.00 78 1012.2
20260504233325 63 295 7.0 17.0 0.00 0.00 0.00 78 1012.2
20260504232336 63 309 8.0 15.0 0.00 0.00 0.00 77 1012.2
20260504231859 63 311 8.0 16.0 0.00 0.00 0.00 76 1012.2
20260504231320 64 291 9.0 16.0 0.00 0.00 0.00 75 1012.2
20260504230823 64 317 8.0 16.0 0.00 0.00 0.00 76 1012.2
20260504230333 64 304 8.0 15.0 0.00 0.00 0.00 76 1012.2
20260504225823 64 321 8.0 16.0 0.00 0.00 0.00 75 1012.2
20260504225325 64 321 9.0 16.0 0.00 0.00 0.00 76 1012.2
20260504224817 64 319 8.0 15.0 0.00 0.00 0.00 75 1012.4
20260504224358 64 306 10.0 15.0 0.00 0.00 0.00 74 1012.3
20260504223844 65 328 6.0 15.0 0.00 0.00 0.00 76 1012.2
20260504223325 65 336 7.0 15.0 0.00 0.00 0.00 75 1012.2
20260504222832 65 317 6.0 13.0 0.00 0.00 0.00 75 1012.3
20260504222322 65 344 7.0 13.0 0.00 0.00 0.00 75 1012.4
20260504221831 65 278 6.0 16.0 0.00 0.00 0.00 75 1012.5
20260504221320 65 311 8.0 16.0 0.00 0.00 0.00 74 1012.5
20260504220858 65 309 6.0 17.0 0.00 0.00 0.00 75 1012.5
20260504220326 65 325 7.0 17.0 0.00 0.00 0.00 74 1012.5
20260504215829 65 313 6.0 13.0 0.00 0.00 0.00 75 1012.5
20260504215331 65 307 7.0 14.0 0.00 0.00 0.00 75 1012.5
20260504214836 65 331 7.0 14.0 0.00 0.00 0.00 74 1012.6
20260504214342 65 313 7.0 16.0 0.00 0.00 0.00 74 1012.6
20260504213837 65 304 7.0 16.0 0.00 0.00 0.00 76 1012.5
20260504213356 65 321 9.0 13.0 0.00 0.00 0.00 75 1012.6
20260504212853 65 310 8.0 12.0 0.00 0.00 0.00 74 1012.6
20260504212322 65 315 6.0 13.0 0.00 0.00 0.00 75 1012.7
20260504211823 65 317 5.0 12.0 0.00 0.00 0.00 74 1012.6
20260504211334 65 298 6.0 11.0 0.00 0.00 0.00 74 1012.6
20260504210821 65 340 6.0 11.0 0.00 0.00 0.00 74 1012.6
20260504210328 65 288 7.0 11.0 0.00 0.00 0.00 73 1012.7
20260504205832 65 297 6.0 10.0 0.00 0.00 0.00 75 1012.6
20260504205352 65 298 6.0 11.0 0.00 0.00 0.00 73 1012.5
20260504204828 65 297 6.0 11.0 0.00 0.00 0.00 72 1012.6
20260504204336 66 336 5.0 11.0 0.00 0.00 0.00 74 1012.7
20260504203836 65 317 5.0 10.0 0.00 0.00 0.00 77 1012.7
20260504203326 65 343 5.0 11.0 0.00 0.00 0.00 76 1012.7
20260504202852 65 321 4.0 11.0 0.00 0.00 0.00 76 1012.8
20260504202333 65 331 6.0 10.0 0.00 0.00 0.00 75 1012.8
20260504201830 65 343 3.0 11.0 0.00 0.00 0.00 77 1012.0
20260504201326 64 327 7.0 12.0 0.00 0.00 0.00 77 1012.9
20260504200815 64 298 6.0 12.0 0.00 0.00 0.00 77 1013.0
20260504200337 64 315 7.0 12.0 0.00 0.00 0.00 77 1013.1
20260504195843 64 321 5.0 13.0 0.00 0.00 0.00 76 1013.1
20260504195347 64 309 6.0 11.0 0.00 0.00 0.00 76 1013.1
20260504194828 64 317 4.0 11.0 0.00 0.00 0.00 76 1013.1
20260504194334 64 332 5.0 11.0 0.00 0.00 0.00 77 1013.1
20260504193847 64 327 4.0 11.0 0.00 0.00 0.00 78 1013.1
20260504193325 64 319 5.0 11.0 0.00 0.00 0.00 77 1013.2
20260504192849 63 332 3.0 10.0 0.00 0.00 0.00 79 1013.2
20260504192334 63 346 4.0 10.0 0.00 0.00 0.00 78 1013.2
20260504191837 63 5 4.0 11.0 0.00 0.00 0.00 79 1013.2
20260504191322 63 316 3.0 11.0 0.00 0.00 0.00 79 1013.3
20260504190858 62 342 2.0 10.0 0.00 0.00 0.00 80 1013.4
20260504190326 62 360 6.0 10.0 0.00 0.00 0.00 80 1013.4
20260504185851 61 13 3.0 9.0 0.00 0.00 0.00 80 1013.5
20260504185322 61 330 2.0 9.0 0.00 0.00 0.00 82 1013.5
20260504184825 61 16 4.0 9.0 0.00 0.00 0.00 82 1013.4
20260504184338 60 290 2.0 7.0 0.00 0.00 0.00 84 1013.6
20260504183819 59 279 4.0 7.0 0.00 0.00 0.00 84 1013.6
20260504183357 59 279 3.0 8.0 0.00 0.00 0.00 84 1013.6
20260504182839 59 278 5.0 7.0 0.00 0.00 0.00 83 1013.7
20260504182322 58 278 1.0 7.0 0.00 0.00 0.00 84 1013.7
20260504181828 58 278 3.0 7.0 0.00 0.00 0.00 83 1013.7
20260504181336 58 278 3.0 6.0 0.00 0.00 0.00 84 1013.8
20260504180819 58 274 1.0 7.0 0.00 0.00 0.00 84 1013.8
20260504180330 58 273 2.0 5.0 0.00 0.00 0.00 85 1013.9
20260504175820 58 271 2.0 6.0 0.00 0.00 0.00 85 1013.8
20260504175329 57 270 4.0 6.0 0.00 0.00 0.00 85 1013.7
20260504174834 57 269 0.0 1.0 0.00 0.00 0.00 86 1013.8
20260504174319 57 269 0.0 1.0 0.00 0.00 0.00 86 1013.7
20260504173824 56 269 0.0 1.0 0.00 0.00 0.00 87 1013.7
20260504173359 56 269 0.0 1.0 0.00 0.00 0.00 88 1013.7
20260504172822 56 269 0.0 0.0 0.00 0.00 0.00 88 1013.8
20260504172321 56 269 0.0 0.0 0.00 0.00 0.00 88 1013.7
20260504171828 56 269 0.0 1.0 0.00 0.00 0.00 89 1013.7
20260504171334 55 269 0.0 3.0 0.00 0.00 0.00 89 1013.6
20260504170824 55 269 1.0 3.0 0.00 0.00 0.00 89 1013.6
20260504170330 55 269 0.0 1.0 0.00 0.00 0.00 89 1013.6
20260504160330 54 269 2.0 5.0 0.00 0.00 0.00 91 1013.3
20260504150827 54 267 4.0 7.0 0.00 0.00 0.00 92 1012.9
20260504150333 54 269 6.0 9.0 0.00 0.00 0.00 92 1012.9
20260504141332 54 287 6.0 10.0 0.00 0.00 0.00 92 1012.6
20260504140830 54 288 6.0 8.0 0.00 0.00 0.00 91 1012.5
20260504140322 54 315 3.0 9.0 0.00 0.00 0.00 92 1012.5
20260504130822 54 321 3.0 10.0 0.00 0.00 0.00 92 1011.8
20260504130326 54 323 4.0 10.0 0.00 0.00 0.00 92 1011.7
20260504110343 54 298 5.0 9.0 0.00 0.00 0.00 93 1011.0
20260504100331 53 329 2.0 8.0 0.00 0.00 0.00 94 1010.7
20260504081830 56 12 7.0 16.0 0.00 0.00 0.00 89 1009.9
20260504081350 56 9 7.0 16.0 0.00 0.00 0.00 89 1009.8
20260504080834 56 9 8.0 15.0 0.00 0.00 0.00 88 1009.7
20260504080339 57 20 9.0 15.0 0.00 0.00 0.00 87 1009.7
20260504070330 63 273 1.0 3.0 0.00 0.00 0.00 77 1008.8
20260504050324 65 273 0.0 2.0 0.00 0.00 0.00 74 1008.4
20260504045823 65 273 0.0 3.0 0.00 0.00 0.00 74 1008.4
20260504045352 66 273 1.0 3.0 0.00 0.00 0.00 74 1008.4
20260504044827 67 273 0.0 2.0 0.00 0.00 0.00 73 1008.3
20260504044318 67 273 0.0 1.0 0.00 0.00 0.00 71 1008.2
20260504043824 68 273 0.0 1.0 0.00 0.00 0.00 70 1008.2
20260504043344 68 273 0.0 0.0 0.00 0.00 0.00 70 1008.2
20260504042837 68 273 0.0 0.0 0.00 0.00 0.00 70 1008.2
20260504042320 69 273 0.0 0.0 0.00 0.00 0.00 69 1008.1
20260504041819 69 273 0.0 1.0 0.00 0.00 0.00 68 1008.0
20260504041346 70 273 0.0 1.0 0.00 0.00 0.00 67 1008.0
20260504040832 70 273 0.0 0.0 0.00 0.00 0.00 65 1007.9
20260504040351 71 273 0.0 2.0 0.00 0.00 0.00 64 1007.8
20260504035823 71 273 0.0 1.0 0.00 0.00 0.00 62 1007.8
20260504035400 72 273 0.0 2.0 0.00 0.00 0.00 62 1007.7
20260504034837 72 273 0.0 4.0 0.00 0.00 0.00 60 1007.6
20260504034339 73 273 0.0 4.0 0.00 0.00 0.00 59 1007.6
20260504033824 73 273 0.0 3.0 0.00 0.00 0.00 58 1007.5
20260504033330 74 273 0.0 1.0 0.00 0.00 0.00 57 1007.4
20260504032823 74 273 0.0 3.0 0.00 0.00 0.00 56 1007.4
20260504032358 75 273 0.0 4.0 0.00 0.00 0.00 56 1007.3
20260504031851 75 273 0.0 4.0 0.00 0.00 0.00 55 1007.2
20260504031332 76 272 0.0 4.0 0.00 0.00 0.00 54 1007.3
20260504030821 78 272 2.0 4.0 0.00 0.00 0.00 51 1007.1
20260504030323 79 272 1.0 7.0 0.00 0.00 0.00 48 1007.1
20260504025827 79 272 3.0 7.0 0.00 0.00 0.00 46 1007.1
20260504025320 80 272 1.0 5.0 0.00 0.00 0.00 48 1007.0
20260504024826 81 272 0.0 7.0 0.00 0.00 0.00 46 1007.0
20260504024323 81 271 2.0 5.0 0.00 0.00 0.00 45 1007.0
20260504023832 82 271 2.0 5.0 0.00 0.00 0.00 45 1006.9
20260504023323 83 271 2.0 5.0 0.00 0.00 0.00 42 1006.9
20260504022829 83 271 3.0 5.0 0.00 0.00 0.00 41 1006.9
20260504022338 83 271 0.0 4.0 0.00 0.00 0.00 44 1006.9
20260504021841 83 271 1.0 6.0 0.00 0.00 0.00 44 1006.8
20260504021346 83 271 2.0 6.0 0.00 0.00 0.00 43 1006.9
20260504020827 83 265 3.0 7.0 0.00 0.00 0.00 40 1006.9
20260504020324 83 265 5.0 10.0 0.00 0.00 0.00 39 1006.8
20260504015826 83 265 6.0 10.0 0.00 0.00 0.00 39 1006.9
20260504015331 83 265 6.0 11.0 0.00 0.00 0.00 39 1006.9
20260504014820 83 252 8.0 11.0 0.00 0.00 0.00 38 1006.8
20260504014321 83 263 7.0 10.0 0.00 0.00 0.00 38 1006.9
20260504013824 83 271 6.0 11.0 0.00 0.00 0.00 38 1006.9
20260504013327 83 271 8.0 11.0 0.00 0.00 0.00 37 1006.9
20260504012826 83 265 7.0 11.0 0.00 0.00 0.00 36 1006.9
20260504012333 83 249 9.0 11.0 0.00 0.00 0.00 36 1007.0
20260504011818 83 274 7.0 15.0 0.00 0.00 0.00 38 1007.0
20260504011327 81 274 7.0 11.0 0.00 0.00 0.00 39 1007.0
20260504010851 80 280 6.0 9.0 0.00 0.00 0.00 43 1007.1
20260504010325 79 283 7.0 10.0 0.00 0.00 0.00 44 1007.1
20260504005823 80 284 7.0 10.0 0.00 0.00 0.00 43 1007.2
20260504005348 80 282 7.0 10.0 0.00 0.00 0.00 40 1007.2
20260504004830 79 281 7.0 9.0 0.00 0.00 0.00 40 1007.3
20260504004342 80 281 7.0 11.0 0.00 0.00 0.00 38 1007.3